Total_Precipitation_Accumulation
0.86 0.76 0.71 0.76 0.87 0.90 0.92 0.98 1.03 0.92 0.68 0.53 0.59 0.41 0.35 0.28 0.12 0.04 0.06 0.09 0.22 0.12 0.02 0.00 0.00 0.01 0.01 0.02 0.03 0.01 0.02 0.02 0.06 0.14 0.13 0.07 0.03 0.01 0.00 0.00 0.00 0.02 0.04 0.06 0.07 0.09 0.01 0.00 0.00 0.00 0.00 0.00 0.00 0.00
0.77 0.78 0.68 0.66 0.76 0.78 0.87 0.99 1.15 1.20 1.09 0.91 0.73 0.39 0.28 0.20 0.13 0.07 0.04 0.08 0.15 0.14 0.04 0.00 0.00 0.00 0.00 0.01 0.01 0.00 0.03 0.01 0.04 0.12 0.16 0.10 0.04 0.01 0.00 0.00 0.00 0.00 0.00 0.00 0.00 0.00 0.00 0.00 0.00 0.00 0.00 0.00 0.00 0.01
0.65 0.70 0.73 0.74 0.92 0.80 0.73 0.71 0.70 0.65 0.72 0.78 0.67 0.42 0.24 0.20 0.17 0.23 0.10 0.04 0.10 0.13 0.02 0.00 0.01 0.00 0.00 0.00 0.01 0.01 0.02 0.01 0.04 0.12 0.26 0.11 0.06 0.04 0.02 0.01 0.00 0.00 0.00 0.00 0.00 0.00 0.00 0.00 0.00 0.00 0.00 0.00 0.00 0.02
0.78 0.67 0.73 0.74 0.94 1.08 0.86 0.71 0.59 0.56 0.55 0.58 0.47 0.29 0.19 0.16 0.21 0.17 0.05 0.06 0.12 0.12 0.10 0.02 0.00 0.00 0.00 0.00 0.01 0.02 0.04 0.02 0.08 0.16 0.18 0.14 0.06 0.03 0.02 0.01 0.00 0.01 0.00 0.00 0.00 0.00 0.00 0.00 0.00 0.00 0.00 0.00 0.00 0.00
0.72 0.90 0.85 0.77 0.68 0.89 1.48 1.23 0.70 0.55 0.60 0.61 0.31 0.16 0.17 0.18 0.11 0.06 0.02 0.04 0.08 0.16 0.20 0.05 0.05 0.00 0.00 0.01 0.04 0.04 0.08 0.15 0.15 0.27 0.31 0.16 0.07 0.05 0.01 0.00 0.00 0.00 0.00 0.00 0.00 0.00 0.00 0.00 0.00 0.00 0.00 0.00 0.00 0.00
0.68 0.75 1.19 1.07 0.72 0.58 0.77 1.29 0.89 0.53 0.51 0.61 0.26 0.20 0.17 0.08 0.10 0.07 0.08 0.23 0.16 0.16 0.38 0.18 0.23 0.03 0.03 0.05 0.14 0.15 0.17 0.30 0.40 0.30 0.28 0.28 0.14 0.15 0.12 0.03 0.00 0.00 0.00 0.00 0.00 0.00 0.00 0.00 0.00 0.00 0.00 0.00 0.00 0.00
0.75 0.64 0.81 1.37 1.16 0.79 0.69 0.83 0.73 0.47 0.47 0.39 0.21 0.15 0.05 0.03 0.07 0.04 0.13 0.56 0.28 0.21 0.34 0.41 0.58 0.15 0.13 0.21 0.20 0.41 0.29 0.47 0.50 0.46 0.29 0.21 0.22 0.48 0.31 0.05 0.00 0.00 0.00 0.00 0.00 0.00 0.00 0.00 0.00 0.00 0.00 0.00 0.00 0.00
1.00 0.77 0.71 0.98 1.25 0.88 0.76 0.81 0.45 0.36 0.37 0.23 0.10 0.03 0.04 0.06 0.03 0.03 0.02 0.10 0.28 0.64 0.61 0.89 0.88 0.45 0.49 0.56 0.44 0.55 0.56 0.66 0.74 0.61 0.28 0.29 0.27 0.34 0.20 0.01 0.01 0.02 0.01 0.01 0.01 0.00 0.00 0.00 0.00 0.00 0.00 0.00 0.00 0.00
0.96 0.92 0.66 0.69 0.97 0.73 0.75 0.80 0.40 0.28 0.19 0.06 0.01 0.01 0.13 0.08 0.04 0.03 0.05 0.15 0.45 0.91 0.79 0.70 0.67 0.62 0.68 0.67 0.65 0.56 0.82 0.72 0.65 0.49 0.19 0.27 0.35 0.32 0.07 0.04 0.05 0.08 0.14 0.16 0.17 0.11 0.05 0.02 0.02 0.02 0.02 0.01 0.01 0.02
0.90 0.94 0.67 0.75 0.78 0.57 0.68 0.62 0.29 0.17 0.06 0.00 0.00 0.02 0.10 0.01 0.00 0.06 0.28 0.67 0.79 0.72 0.50 0.53 0.61 0.67 0.88 0.67 0.56 0.61 0.64 0.50 0.60 0.31 0.22 0.23 0.16 0.07 0.05 0.07 0.08 0.08 0.19 0.26 0.33 0.36 0.30 0.18 0.06 0.04 0.07 0.10 0.09 0.08
0.83 0.86 0.67 0.81 0.69 0.48 0.60 0.41 0.17 0.06 0.01 0.00 0.00 0.01 0.02 0.00 0.15 0.47 0.75 0.74 0.55 0.36 0.30 0.37 0.52 0.47 0.41 0.52 0.48 0.57 0.74 0.40 0.45 0.55 0.30 0.24 0.22 0.15 0.07 0.03 0.02 0.02 0.05 0.09 0.15 0.32 0.38 0.26 0.22 0.12 0.11 0.17 0.24 0.23
0.72 0.78 0.62 0.79 0.60 0.46 0.48 0.27 0.07 0.01 0.01 0.01 0.02 0.01 0.02 0.13 0.38 0.49 0.60 0.46 0.21 0.15 0.21 0.38 0.37 0.35 0.26 0.30 0.38 0.39 0.44 0.36 0.41 0.56 0.40 0.30 0.27 0.12 0.15 0.15 0.09 0.05 0.10 0.06 0.09 0.13 0.14 0.12 0.16 0.18 0.13 0.13 0.15 0.24
0.70 0.66 0.61 0.79 0.56 0.43 0.32 0.13 0.03 0.00 0.01 0.01 0.01 0.01 0.06 0.15 0.27 0.32 0.34 0.27 0.07 0.07 0.10 0.11 0.21 0.21 0.24 0.29 0.20 0.24 0.18 0.10 0.21 0.37 0.44 0.20 0.03 0.03 0.02 0.03 0.10 0.23 0.32 0.24 0.11 0.15 0.16 0.17 0.15 0.12 0.13 0.11 0.08 0.07
0.83 0.67 0.71 0.90 0.58 0.33 0.16 0.09 0.04 0.01 0.01 0.00 0.00 0.00 0.06 0.09 0.14 0.14 0.12 0.12 0.05 0.04 0.03 0.05 0.10 0.14 0.24 0.18 0.19 0.16 0.05 0.08 0.25 0.28 0.17 0.06 0.06 0.03 0.00 0.00 0.00 0.03 0.13 0.29 0.35 0.41 0.39 0.46 0.43 0.44 0.45 0.40 0.31 0.24
1.11 0.87 0.92 1.01 0.59 0.30 0.20 0.17 0.05 0.01 0.00 0.00 0.00 0.00 0.01 0.03 0.02 0.01 0.02 0.05 0.03 0.04 0.05 0.03 0.05 0.05 0.12 0.16 0.12 0.15 0.11 0.30 0.37 0.21 0.14 0.08 0.03 0.01 0.01 0.01 0.00 0.00 0.01 0.01 0.07 0.24 0.32 0.38 0.49 0.44 0.39 0.31 0.23 0.21
1.66 1.88 1.65 1.20 0.65 0.34 0.30 0.30 0.16 0.05 0.01 0.00 0.00 0.00 0.00 0.01 0.00 0.00 0.00 0.01 0.01 0.03 0.06 0.09 0.12 0.11 0.08 0.18 0.15 0.10 0.16 0.35 0.32 0.14 0.06 0.01 0.01 0.04 0.02 0.02 0.01 0.00 0.00 0.00 0.00 0.02 0.06 0.07 0.11 0.12 0.10 0.18 0.23 0.21
2.78 2.70 1.55 0.97 0.67 0.39 0.34 0.44 0.41 0.29 0.08 0.04 0.00 0.00 0.00 0.01 0.00 0.00 0.00 0.00 0.01 0.06 0.20 0.30 0.25 0.10 0.09 0.12 0.05 0.05 0.18 0.16 0.07 0.03 0.02 0.01 0.01 0.05 0.05 0.02 0.02 0.02 0.03 0.04 0.03 0.06 0.10 0.10 0.14 0.19 0.14 0.09 0.10 0.16
2.19 1.26 0.98 0.94 0.85 0.62 0.62 0.61 0.53 0.46 0.29 0.05 0.01 0.00 0.00 0.00 0.00 0.00 0.00 0.00 0.01 0.08 0.26 0.52 0.31 0.18 0.06 0.03 0.02 0.02 0.02 0.03 0.02 0.01 0.00 0.00 0.00 0.02 0.04 0.02 0.01 0.04 0.08 0.21 0.23 0.18 0.15 0.16 0.16 0.14 0.12 0.09 0.07 0.08
1.37 0.85 1.02 0.96 1.00 0.86 0.83 0.65 0.57 0.40 0.07 0.01 0.01 0.00 0.00 0.00 0.01 0.01 0.01 0.00 0.01 0.04 0.14 0.30 0.29 0.09 0.00 0.00 0.01 0.01 0.00 0.00 0.00 0.00 0.01 0.00 0.00 0.02 0.06 0.08 0.08 0.06 0.07 0.13 0.13 0.10 0.08 0.06 0.05 0.07 0.09 0.08 0.06 0.05
1.64 1.56 1.49 1.33 1.05 1.05 0.87 0.62 0.33 0.16 0.09 0.01 0.00 0.00 0.01 0.01 0.01 0.01 0.01 0.01 0.02 0.08 0.12 0.12 0.05 0.02 0.02 0.04 0.06 0.04 0.01 0.01 0.00 0.00 0.01 0.01 0.00 0.00 0.00 0.02 0.05 0.05 0.05 0.05 0.06 0.07 0.07 0.05 0.05 0.06 0.08 0.08 0.07 0.06
3.07 2.47 2.14 2.04 1.99 1.41 0.74 0.30 0.10 0.03 0.03 0.02 0.01 0.00 0.00 0.00 0.00 0.00 0.02 0.03 0.06 0.06 0.04 0.02 0.02 0.02 0.04 0.05 0.06 0.05 0.03 0.02 0.01 0.00 0.00 0.00 0.00 0.00 0.00 0.00 0.01 0.02 0.02 0.02 0.01 0.02 0.04 0.03 0.05 0.07 0.05 0.05 0.08 0.09
2.81 2.32 3.22 3.18 2.21 1.62 0.82 0.28 0.04 0.02 0.02 0.03 0.02 0.01 0.00 0.00 0.00 0.01 0.02 0.05 0.03 0.01 0.01 0.02 0.04 0.05 0.05 0.06 0.07 0.07 0.05 0.02 0.01 0.01 0.00 0.00 0.00 0.00 0.00 0.00 0.01 0.00 0.00 0.00 0.00 0.00 0.01 0.01 0.03 0.03 0.03 0.05 0.08 0.10
2.46 2.57 2.68 2.45 1.95 1.42 0.81 0.25 0.08 0.05 0.03 0.04 0.04 0.02 0.00 0.00 0.01 0.03 0.02 0.01 0.00 0.00 0.00 0.02 0.04 0.07 0.10 0.10 0.14 0.12 0.11 0.08 0.04 0.02 0.01 0.01 0.00 0.00 0.01 0.00 0.00 0.00 0.00 0.00 0.00 0.00 0.00 0.00 0.00 0.00 0.02 0.04 0.06 0.07
2.40 2.63 2.65 2.25 1.40 0.87 0.58 0.42 0.27 0.13 0.13 0.07 0.05 0.03 0.01 0.00 0.04 0.03 0.01 0.00 0.00 0.00 0.00 0.01 0.03 0.03 0.04 0.06 0.09 0.16 0.22 0.21 0.15 0.10 0.06 0.04 0.02 0.01 0.01 0.01 0.00 0.00 0.00 0.00 0.00 0.00 0.00 0.00 0.00 0.00 0.00 0.00 0.01 0.03
3.18 3.22 2.29 1.82 1.04 0.41 0.23 0.21 0.16 0.11 0.10 0.07 0.05 0.02 0.01 0.03 0.02 0.02 0.01 0.00 0.00 0.00 0.00 0.00 0.02 0.03 0.03 0.03 0.05 0.07 0.10 0.18 0.19 0.18 0.18 0.18 0.11 0.08 0.05 0.03 0.02 0.01 0.00 0.00 0.00 0.00 0.00 0.00 0.00 0.00 0.00 0.00 0.01 0.03
2.71 1.92 1.11 0.53 0.31 0.11 0.05 0.05 0.05 0.04 0.03 0.05 0.05 0.02 0.02 0.03 0.02 0.01 0.00 0.00 0.00 0.00 0.00 0.00 0.00 0.01 0.02 0.03 0.04 0.07 0.09 0.13 0.14 0.11 0.10 0.19 0.20 0.19 0.16 0.12 0.08 0.04 0.02 0.04 0.04 0.03 0.02 0.01 0.01 0.01 0.01 0.01 0.02 0.04
1.83 1.17 0.50 0.12 0.03 0.04 0.02 0.01 0.02 0.03 0.04 0.04 0.04 0.04 0.04 0.05 0.02 0.00 0.00 0.00 0.00 0.00 0.00 0.00 0.00 0.01 0.01 0.02 0.03 0.05 0.07 0.12 0.13 0.09 0.10 0.13 0.14 0.14 0.15 0.14 0.12 0.09 0.10 0.11 0.11 0.10 0.07 0.05 0.04 0.04 0.05 0.05 0.04 0.04
0.85 0.20 0.06 0.07 0.02 0.01 0.03 0.04 0.05 0.05 0.04 0.02 0.03 0.05 0.08 0.05 0.01 0.00 0.00 0.00 0.00 0.00 0.00 0.00 0.00 0.00 0.00 0.01 0.02 0.04 0.06 0.09 0.12 0.11 0.12 0.14 0.13 0.13 0.14 0.16 0.22 0.27 0.28 0.21 0.16 0.17 0.18 0.17 0.14 0.13 0.15 0.12 0.09 0.07
0.16 0.03 0.01 0.04 0.03 0.03 0.04 0.04 0.03 0.02 0.02 0.02 0.03 0.03 0.02 0.00 0.00 0.00 0.00 0.00 0.00 0.00 0.00 0.00 0.00 0.00 0.01 0.02 0.03 0.04 0.06 0.09 0.12 0.10 0.08 0.09 0.13 0.16 0.20 0.27 0.35 0.42 0.41 0.37 0.32 0.25 0.25 0.27 0.29 0.28 0.26 0.23 0.19 0.19
0.04 0.01 0.01 0.02 0.03 0.02 0.02 0.02 0.02 0.02 0.03 0.02 0.02 0.03 0.03 0.02 0.01 0.01 0.01 0.01 0.01 0.00 0.00 0.00 0.01 0.02 0.02 0.03 0.05 0.06 0.06 0.07 0.10 0.10 0.10 0.10 0.12 0.18 0.24 0.29 0.37 0.46 0.46 0.42 0.50 0.57 0.53 0.53 0.55 0.52 0.47 0.41 0.35 0.31
0.00 0.00 0.01 0.02 0.04 0.04 0.05 0.05 0.03 0.02 0.03 0.02 0.02 0.03 0.03 0.03 0.02 0.01 0.01 0.00 0.01 0.00 0.01 0.01 0.01 0.02 0.03 0.04 0.06 0.09 0.09 0.11 0.14 0.14 0.15 0.18 0.20 0.23 0.28 0.34 0.38 0.44 0.49 0.49 0.45 0.43 0.40 0.34 0.30 0.29 0.30 0.30 0.27 0.24
0.02 0.02 0.03 0.05 0.09 0.11 0.10 0.07 0.03 0.02 0.02 0.02 0.01 0.01 0.01 0.01 0.01 0.00 0.00 0.00 0.01 0.01 0.01 0.02 0.03 0.05 0.06 0.08 0.11 0.14 0.18 0.18 0.18 0.19 0.21 0.22 0.23 0.25 0.30 0.37 0.44 0.47 0.49 0.49 0.44 0.40 0.36 0.37 0.38 0.37 0.39 0.39 0.37 0.31
0.12 0.09 0.09 0.11 0.15 0.18 0.15 0.10 0.08 0.07 0.06 0.04 0.02 0.01 0.01 0.01 0.01 0.00 0.00 0.00 0.01 0.02 0.03 0.06 0.09 0.12 0.15 0.16 0.19 0.23 0.26 0.29 0.31 0.34 0.38 0.36 0.34 0.37 0.43 0.45 0.45 0.45 0.43 0.43 0.46 0.48 0.48 0.45 0.42 0.40 0.38 0.36 0.35 0.33